This is the latest recevied weather packets stored in our database for station/object N5ZP. If no packets are shown the sender has not sent any weather packets the latest 10 day(s).
| Time | Temp. | Humidity | Pressure | Rain* | Wind** | Luminosity | Snow |
|---|---|---|---|---|---|---|---|
| 1777983312 | 21.11° C | 84% | 1000.6 hPa | 0 mm | - | 28 W/m² | - |
| 1777983009 | 20.56° C | 84% | 1000.5 hPa | 0 mm | - | 23 W/m² | - |
| 1777982705 | 20.56° C | 84% | 1000.4 hPa | 0 mm | - | 13 W/m² | - |
| 1777982405 | 20.56° C | 84% | 1000.5 hPa | 0 mm | - | 11 W/m² | - |
| 1777982101 | 20.56° C | 84% | 1000.5 hPa | 0 mm | - | 8 W/m² | - |
| 1777981799 | 20.56° C | 84% | 1000.5 hPa | 0 mm | - | 5 W/m² | - |
| 1777981495 | 20.56° C | 84% | 1000.5 hPa | 0 mm | - | 2 W/m² | - |
| 1777981191 | 20.56° C | 83% | 1000.4 hPa | 0 mm | - | 2 W/m² | - |
| 1777980888 | 20.56° C | 83% | 1000.4 hPa | 0 mm | - | 1 W/m² | - |
| 1777980583 | 20.56° C | 83% | 1000.4 hPa | 0 mm | - | 0 W/m² | - |
| 1777980281 | 20.56° C | 83% | 1000.2 hPa | 0 mm | - | 0 W/m² | - |
| 1777979978 | 21.11° C | 83% | 1000.4 hPa | 0 mm | - | 0 W/m² | - |
| 1777979672 | 21.11° C | 83% | 1000 hPa | 0 mm | - | 0 W/m² | - |
| 1777979369 | 20.56° C | 83% | 1000.2 hPa | 0 mm | - | 0 W/m² | - |
| 1777979065 | 20.56° C | 83% | 1000.3 hPa | 0 mm | - | 0 W/m² | - |
| 1777978762 | 21.11° C | 83% | 1000.4 hPa | 0 mm | - | 0 W/m² | - |
| 1777978459 | 21.11° C | 83% | 1000.3 hPa | 0 mm | - | 0 W/m² | - |
| 1777978155 | 21.11° C | 83% | 1000.2 hPa | 0 mm | - | 0 W/m² | - |
| 1777977852 | 20.56° C | 83% | 1000.2 hPa | 0 mm | - | 0 W/m² | - |
| 1777977548 | 20.56° C | 83% | 1000.3 hPa | 0 mm | - | 0 W/m² | - |
| 1777977246 | 21.11° C | 82% | 1000.2 hPa | 0 mm | - | 0 W/m² | - |
| 1777976943 | 21.11° C | 82% | 1000.2 hPa | 0 mm | - | 0 W/m² | - |
| 1777976640 | 21.11° C | 82% | 999.9 hPa | 0 mm | - | 0 W/m² | - |
| 1777976336 | 21.11° C | 82% | 1000.3 hPa | 0 mm | - | 0 W/m² | - |
| 1777976031 | 21.11° C | 82% | 1000.3 hPa | 0 mm | - | 0 W/m² | - |
* Rain latest hour (hover to see other rain measurements)
** Current wind speed in m/s (hover to see current wind gust speed)